Jamestown, ND

3:57 PM CDT on August 22, 2017 (GMT -0500)
Jamestown Municipal

Weather History for KJMS - December, 2013

Change the Weather History Date:

Thursday, December 26, 2013

  Actual Average Record
Temperature  
Mean Temperature 26 °F 12 °F  
Max Temperature 32 °F 21 °F 48 °F (2005)
Min Temperature 19 °F 2 °F -29 °F (1950)
Degree Days  
Heating Degree Days 39 53  
Month to date heating degree days 1557 1306  
Since 1 July heating degree days 3565 3390  
Cooling Degree Days 0 0  
Month to date cooling degree days 0 0  
Year to date cooling degree days 521 446  
Moisture  
Dew Point 22 °F    
Average Humidity 89    
Maximum Humidity 96    
Minimum Humidity 81    
Precipitation  
Precipitation T in 0.02 in 0.79 in (1988)
Month to date precipitation 0.24 0.33  
Year to date precipitation 16.11 18.70  
Sea Level Pressure  
Sea Level Pressure 30.04 in    
Wind  
Wind Speed 8 mph (SSW)    
Max Wind Speed 23 mph    
Max Gust Speed 28 mph    
Visibility 10 miles    
Events Snow    
T = Trace of Precipitation, MM = Missing Value Source: NWS Daily Summary

Daily Weather History Graph

Daily Weather History Graph

Search for Another Location

Airport or City:

Trip Planner

Search our weather history database for the weather conditions in past years. The results will help you decide how hot, cold, wet, or windy it might be!

Date:

Astronomy

Dec. 26, 2013 Rise Set
Actual Time 8:19 AM CST 4:51 PM CST
Civil Twilight 7:44 AM CST 5:27 PM CST
Nautical Twilight 7:05 AM CST 6:05 PM CST
Astronomical Twilight 6:28 AM CST 6:42 PM CST
Moon 1:32 AM CST (12/26) 12:43 PM CST (12/26)
Length of Visible Light 9h 43m
Length of Day
8h 32m
Last Quarter, 38% of the Moon is Illuminated
Dec 26
Last Quarter
Jan 1
New
Jan 7
First Quarter
Jan 15
Full
Jan 23
Last Quarter

Hourly Weather History & Observations

Time (CST) Temp. Windchill Dew Point Humidity Pressure Visibility Wind Dir Wind Speed Gust Speed Precip Events Conditions
12:56 AM 24.1 °F 17.0 °F 19.0 °F 81% 30.05 in 10.0 mi West 5.8 mph - N/A   Overcast
1:56 AM 24.1 °F 19.7 °F 21.0 °F 88% 30.04 in 10.0 mi West 3.5 mph - N/A   Overcast
2:56 AM 21.9 °F - 19.9 °F 92% 30.03 in 10.0 mi Calm Calm - N/A   Overcast
3:56 AM 21.9 °F 17.2 °F 19.9 °F 92% 30.01 in 10.0 mi East 3.5 mph - N/A   Overcast
4:56 AM 21.9 °F 17.2 °F 21.0 °F 96% 30.01 in 5.0 mi SE 3.5 mph - 0.00 in Snow Light Snow
5:49 AM 21.9 °F 17.2 °F 21.0 °F 96% 29.95 in 6.0 mi SSW 3.5 mph - 0.00 in Snow Light Snow
5:56 AM 21.9 °F 17.2 °F 21.0 °F 96% 30.03 in 5.0 mi SW 3.5 mph - 0.00 in Snow Light Snow
6:56 AM 21.9 °F 14.5 °F 21.0 °F 96% 30.01 in 10.0 mi East 5.8 mph - 0.00 in   Overcast
7:22 AM 19.9 °F 7.3 °F 19.0 °F 96% 29.94 in 10.0 mi ESE 12.7 mph - 0.00 in   Overcast
7:56 AM 19.0 °F 7.5 °F 17.1 °F 92% 30.03 in 10.0 mi ESE 10.4 mph - 0.00 in   Overcast
8:56 AM 19.9 °F 11.1 °F 18.0 °F 92% 30.04 in 10.0 mi SE 6.9 mph - N/A   Overcast
9:56 AM 19.9 °F 10.1 °F 18.0 °F 92% 30.04 in 10.0 mi SSE 8.1 mph - N/A   Overcast
10:48 AM 21.9 °F 17.2 °F 19.9 °F 92% 29.98 in 10.0 mi SE 3.5 mph - N/A   Overcast
10:56 AM 21.9 °F 17.2 °F 19.9 °F 92% 30.06 in 10.0 mi SE 3.5 mph - N/A   Overcast
11:12 AM 21.9 °F 15.7 °F 19.9 °F 92% 29.98 in 10.0 mi SSE 4.6 mph - N/A   Overcast
11:56 AM 24.1 °F 18.2 °F 21.0 °F 88% 30.05 in 10.0 mi South 4.6 mph - N/A   Overcast
12:42 PM 25.0 °F - 21.9 °F 88% 29.96 in 10.0 mi Calm Calm - N/A   Overcast
12:56 PM 25.0 °F 19.3 °F 23.0 °F 92% 30.03 in 10.0 mi SSE 4.6 mph - N/A   Overcast
1:56 PM 32.0 °F 21.2 °F 28.0 °F 85% 30.03 in 10.0 mi NW 16.1 mph - N/A   Overcast
2:56 PM 30.0 °F 18.7 °F 27.0 °F 88% 30.06 in 10.0 mi NW 16.1 mph - N/A   Overcast
3:56 PM 30.0 °F 20.0 °F 27.0 °F 88% 30.09 in 10.0 mi NW 12.7 mph - N/A   Overcast
4:56 PM 30.0 °F 23.2 °F 27.0 °F 88% 30.10 in 10.0 mi NW 6.9 mph - N/A   Overcast
5:56 PM 30.0 °F 19.5 °F 26.1 °F 85% 30.11 in 10.0 mi WNW 13.8 mph - N/A   Overcast
6:56 PM 30.0 °F 26.5 °F 26.1 °F 85% 30.12 in 10.0 mi West 3.5 mph - N/A   Overcast
7:56 PM 30.0 °F 23.2 °F 26.1 °F 85% 30.11 in 10.0 mi WSW 6.9 mph - N/A   Overcast
8:45 PM 26.1 °F 19.4 °F 24.1 °F 92% 30.03 in 10.0 mi SW 5.8 mph - N/A   Partly Cloudy
8:56 PM 26.1 °F 19.4 °F 24.1 °F 92% 30.10 in 10.0 mi SW 5.8 mph - N/A   Partly Cloudy
9:56 PM 23.0 °F 13.1 °F 21.9 °F 96% 30.08 in 10.0 mi SSW 9.2 mph - N/A   Clear
10:56 PM 23.0 °F 11.1 °F 21.0 °F 92% 30.05 in 10.0 mi South 12.7 mph - N/A   Clear
11:56 PM 21.0 °F 7.1 °F 19.9 °F 96% 30.03 in 10.0 mi SSW 16.1 mph - N/A   Clear